Location: Arpaise
(41.0333°N, 14.7333°E)
Time: 16:28:52
(UTC+00:00)

Resurs 01 Rocket - Pass Details

Date: 05 July 2020
Orbit: 635 x 644 km, 98.0° (Epoch: 10 August)

Event Time Altitude Azimuth Distance (km) Brightness Sun altitude
Exits shadow 19:08:06 - 149° (SSE) 2,443 4.0 -5.8°
Reaches altitude 10° 19:09:09 10° 146° (SE) 2,022 3.6 -5.9°
Maximum altitude 19:13:23 47° 72° (ENE) 844 2.0 -6.6°
Drops below altitude 10° 19:17:37 10° 359° (N) 2,032 4.8 -7.2°
Sets 19:19:53 0° 354° (N) 2,944 5.8 -7.5°
